When you browse on this site, cookies collect data to enhance your experience and personalize the content and advertising you see.
Visit our Privacy Policy to learn more. By continuing to use the site, you agree to this use of cookies and data.
  • In United Kingdom
  • List of Countries
  • For 7 days
  • Water Temperature
  • Satellite Maps
  • Weather Map
  • Weather Widgets
  • user-avatar
    Login

    Hourly Weather Gomel

    Today, 22 July, Monday

    Time Temperature Precipitation Wind Pressure Humidity
    00:00 +18°C° 0 mm 2 mps 752 mmHg 85%
    01:00 +18°C° 0 mm 2 mps 751 mmHg 86%
    02:00 +18°C° 0 mm 2 mps 751 mmHg 86%
    03:00 +18°C° 0.1 mm 2 mps 751 mmHg 86%
    04:00 +18°C° 0.1 mm 2 mps 751 mmHg 87%
    05:00 +18°C° 0.1 mm 2 mps 751 mmHg 87%
    06:00 +19°C° 0.1 mm 2 mps 751 mmHg 84%
    07:00 +20°C° 0.1 mm 2 mps 751 mmHg 80%
    08:00 +23°C° 0.1 mm 2 mps 750 mmHg 76%
    09:00 +24°C° 0.5 mm 3 mps 750 mmHg 75%
    10:00 +23°C° 0.5 mm 4 mps 750 mmHg 75%
    11:00 +25°C° 0.5 mm 5 mps 750 mmHg 74%
    12:00 +23°C° 0.7 mm 4 mps 749 mmHg 79%
    13:00 +22°C° 0.7 mm 3 mps 749 mmHg 83%
    14:00 +21°C° 0.7 mm 2 mps 749 mmHg 87%
    15:00 +21°C° 1 mm 3 mps 749 mmHg 86%
    16:00 +21°C° 1 mm 4 mps 749 mmHg 85%
    17:00 +21°C° 1 mm 5 mps 749 mmHg 84%
    18:00 +20°C° 0 mm 5 mps 749 mmHg 87%
    19:00 +19°C° 0 mm 4 mps 748 mmHg 89%
    20:00 +18°C° 0 mm 4 mps 748 mmHg 92%
    21:00 +18°C° 0 mm 3 mps 748 mmHg 93%
    22:00 +17°C° 0 mm 3 mps 748 mmHg 94%
    23:00 +17°C° 0 mm 3 mps 748 mmHg 95%

    Tomorrow, 23 July, Tuesday

    Time Temperature Precipitation Wind Pressure Humidity
    00:00 +17°C° 0 mm 3 mps 748 mmHg 95%
    01:00 +16°C° 0 mm 3 mps 748 mmHg 96%
    02:00 +16°C° 0 mm 3 mps 748 mmHg 97%
    03:00 +15°C° 0 mm 4 mps 748 mmHg 96%
    04:00 +15°C° 0 mm 4 mps 748 mmHg 95%
    05:00 +15°C° 0 mm 4 mps 748 mmHg 94%
    06:00 +17°C° 0 mm 4 mps 747 mmHg 91%
    07:00 +17°C° 0 mm 4 mps 747 mmHg 89%
    08:00 +18°C° 0 mm 4 mps 747 mmHg 86%
    09:00 +18°C° 0 mm 4 mps 747 mmHg 84%
    10:00 +18°C° 0 mm 4 mps 747 mmHg 82%
    11:00 +19°C° 0 mm 5 mps 747 mmHg 80%
    12:00 +19°C° 0 mm 4 mps 747 mmHg 78%
    13:00 +19°C° 0 mm 4 mps 747 mmHg 77%
    14:00 +20°C° 0 mm 4 mps 747 mmHg 76%
    15:00 +20°C° 0.2 mm 4 mps 747 mmHg 77%
    16:00 +20°C° 0.2 mm 4 mps 747 mmHg 79%
    17:00 +20°C° 0.2 mm 4 mps 747 mmHg 81%
    18:00 +19°C° 0.3 mm 3 mps 747 mmHg 86%
    19:00 +18°C° 0.3 mm 3 mps 746 mmHg 90%
    20:00 +17°C° 0.3 mm 3 mps 746 mmHg 95%
    21:00 +16°C° 0 mm 2 mps 746 mmHg 96%
    22:00 +16°C° 0 mm 2 mps 746 mmHg 96%
    23:00 +15°C° 0 mm 2 mps 746 mmHg 97%

    Day after tomorrow, 24 July, Wednesday

    Time Temperature Precipitation Wind Pressure Humidity
    00:00 +15°C° 0 mm 1 mps 746 mmHg 96%
    01:00 +15°C° 0 mm 1 mps 746 mmHg 96%
    02:00 +15°C° 0 mm 1 mps 746 mmHg 96%
    03:00 +16°C° 0.1 mm 1 mps 746 mmHg 96%
    04:00 +16°C° 0.1 mm 1 mps 746 mmHg 96%
    05:00 +16°C° 0.1 mm 1 mps 746 mmHg 97%
    06:00 +16°C° 0.2 mm 2 mps 746 mmHg 96%
    07:00 +17°C° 0.2 mm 2 mps 747 mmHg 95%
    08:00 +17°C° 0.2 mm 2 mps 747 mmHg 95%
    09:00 +18°C° 0.1 mm 2 mps 747 mmHg 88%
    10:00 +20°C° 0.1 mm 2 mps 747 mmHg 81%
    11:00 +21°C° 0.1 mm 2 mps 747 mmHg 74%
    12:00 +21°C° 0.2 mm 2 mps 747 mmHg 73%
    13:00 +22°C° 0.2 mm 3 mps 747 mmHg 72%
    14:00 +22°C° 0.2 mm 3 mps 747 mmHg 72%
    15:00 +21°C° 0.8 mm 3 mps 747 mmHg 75%
    16:00 +21°C° 0.8 mm 3 mps 747 mmHg 78%
    17:00 +20°C° 0.8 mm 2 mps 747 mmHg 81%
    18:00 +19°C° 0.3 mm 2 mps 748 mmHg 84%
    19:00 +19°C° 0.3 mm 2 mps 748 mmHg 87%
    20:00 +19°C° 0.3 mm 1 mps 748 mmHg 90%
    21:00 +18°C° 0.2 mm 1 mps 748 mmHg 91%
    22:00 +18°C° 0.2 mm 1 mps 748 mmHg 93%
    23:00 +16°C° 0.2 mm 1 mps 748 mmHg 94%

    25 July, Thursday

    Time Temperature Precipitation Wind Pressure Humidity
    00:00 +16°C° 0.7 mm 2 mps 748 mmHg 94%
    01:00 +16°C° 0.7 mm 3 mps 748 mmHg 95%
    02:00 +16°C° 0.7 mm 3 mps 748 mmHg 95%
    03:00 +15°C° 1.4 mm 4 mps 748 mmHg 95%
    04:00 +15°C° 1.4 mm 4 mps 748 mmHg 95%
    05:00 +15°C° 1.4 mm 5 mps 748 mmHg 95%
    06:00 +15°C° 0.8 mm 5 mps 748 mmHg 94%
    07:00 +16°C° 0.8 mm 5 mps 748 mmHg 94%
    08:00 +16°C° 0.8 mm 5 mps 748 mmHg 93%
    09:00 +17°C° 0.3 mm 5 mps 748 mmHg 91%
    10:00 +19°C° 0.3 mm 5 mps 749 mmHg 88%
    11:00 +19°C° 0.3 mm 5 mps 749 mmHg 86%
    12:00 +20°C° 0.1 mm 5 mps 749 mmHg 82%
    13:00 +21°C° 0.1 mm 5 mps 749 mmHg 78%
    14:00 +22°C° 0.1 mm 5 mps 749 mmHg 74%
    15:00 +22°C° 0 mm 5 mps 749 mmHg 73%
    16:00 +23°C° 0 mm 4 mps 749 mmHg 72%
    17:00 +23°C° 0 mm 4 mps 749 mmHg 72%
    18:00 +22°C° 0 mm 4 mps 749 mmHg 78%
    19:00 +21°C° 0 mm 4 mps 749 mmHg 84%
    20:00 +20°C° 0 mm 3 mps 749 mmHg 89%
    21:00 +19°C° 0.1 mm 3 mps 750 mmHg 91%
    22:00 +19°C° 0.1 mm 4 mps 750 mmHg 93%
    23:00 +18°C° 0.1 mm 4 mps 750 mmHg 95%

    26 July, Friday

    Time Temperature Precipitation Wind Pressure Humidity
    00:00 +18°C° 0 mm 3 mps 750 mmHg 95%
    01:00 +17°C° 0 mm 3 mps 750 mmHg 96%
    02:00 +17°C° 0 mm 3 mps 750 mmHg 96%
    03:00 +17°C° 0 mm 3 mps 750 mmHg 95%
    04:00 +17°C° 0 mm 4 mps 750 mmHg 94%
    05:00 +17°C° 0 mm 4 mps 751 mmHg 93%
    06:00 +17°C° 0 mm 5 mps 751 mmHg 87%
    07:00 +20°C° 0 mm 5 mps 751 mmHg 81%
    08:00 +22°C° 0 mm 6 mps 751 mmHg 76%
    09:00 +23°C° 0.7 mm 6 mps 751 mmHg 75%
    10:00 +23°C° 0.7 mm 5 mps 751 mmHg 74%
    11:00 +25°C° 0.7 mm 5 mps 751 mmHg 73%
    12:00 +26°C° 0.7 mm 5 mps 751 mmHg 71%
    13:00 +26°C° 0.7 mm 5 mps 750 mmHg 70%
    14:00 +27°C° 0.7 mm 5 mps 750 mmHg 69%
    15:00 +26°C° 0.7 mm 5 mps 750 mmHg 70%
    16:00 +26°C° 0.7 mm 4 mps 750 mmHg 72%
    17:00 +26°C° 0.7 mm 4 mps 750 mmHg 74%
    18:00 +23°C° 0.2 mm 4 mps 750 mmHg 78%
    19:00 +22°C° 0.2 mm 4 mps 750 mmHg 81%
    20:00 +21°C° 0.2 mm 3 mps 750 mmHg 84%
    21:00 +20°C° 0 mm 3 mps 750 mmHg 86%
    22:00 +19°C° 0 mm 3 mps 750 mmHg 88%
    23:00 +19°C° 0 mm 3 mps 750 mmHg 90%

    27 July, Saturday

    Time Temperature Precipitation Wind Pressure Humidity
    00:00 +18°C° 0 mm 3 mps 750 mmHg 91%
    01:00 +18°C° 0 mm 3 mps 750 mmHg 91%
    02:00 +17°C° 0 mm 3 mps 750 mmHg 92%
    03:00 +17°C° 0 mm 2 mps 750 mmHg 92%
    04:00 +17°C° 0 mm 2 mps 750 mmHg 92%
    05:00 +17°C° 0 mm 2 mps 750 mmHg 93%
    06:00 +18°C° 0 mm 3 mps 750 mmHg 89%
    07:00 +20°C° 0 mm 3 mps 750 mmHg 86%
    08:00 +21°C° 0 mm 3 mps 750 mmHg 82%
    09:00 +22°C° 0 mm 4 mps 750 mmHg 77%
    10:00 +25°C° 0 mm 4 mps 750 mmHg 71%
    11:00 +26°C° 0 mm 4 mps 750 mmHg 66%
    12:00 +27°C° 0 mm 4 mps 750 mmHg 63%
    13:00 +27°C° 0 mm 5 mps 750 mmHg 61%
    14:00 +27°C° 0 mm 5 mps 749 mmHg 58%
    15:00 +27°C° 0 mm 4 mps 749 mmHg 61%
    16:00 +27°C° 0 mm 4 mps 749 mmHg 63%
    17:00 +27°C° 0 mm 4 mps 749 mmHg 65%
    18:00 +25°C° 0 mm 3 mps 749 mmHg 71%
    19:00 +22°C° 0 mm 3 mps 749 mmHg 78%
    20:00 +21°C° 0 mm 3 mps 749 mmHg 84%
    21:00 +20°C° 0 mm 3 mps 749 mmHg 85%
    22:00 +19°C° 0 mm 3 mps 749 mmHg 85%
    23:00 +19°C° 0 mm 2 mps 749 mmHg 85%
    Show more